Regional Weather Roundup
Issued by NWS Green Bay, WI

Home | Current Version | Previous Version | Text Only | Print | Product List | Glossary On
Versions: 1 2 3 4 5 6 7 8 9 10 11 12 13 14 15 16 17 18 19 20 21 22 23 24 25 26 27 28 29 30 31 32 33 34 35 36 37 38 39 40 41 42 43 44 45 46 47 48 49 50
000
ASUS43 KGRB 251811
RWRGRB

NORTH-CENTRAL AND NORTHEAST WISCONSIN REGIONAL WEATHER ROUNDUP
NATIONAL WEATHER SERVICE GREEN BAY WI
100 PM CDT THU MAY 25 2017

WIZ005-009-010>012-018-019-251900-
NORTH CENTRAL WISCONSIN

CITY           SKY/WX    TMP DP  RH WIND       PRES   REMARKS
IRONWOOD       CLOUDY    64  47  53 NE8       29.71F
MANITOWISH WTR PTSUNNY   65  46  50 SE5       29.70F
ARBOR VITAE    MOSUNNY   70  48  45 SE8       29.70S
EAGLE RIVER    MOSUNNY   70  44  39 E8        29.69F
LAND O LAKES   CLOUDY    68  45  43 NE5       29.72S
RHINELANDER    MOSUNNY   69  48  47 CALM      29.70F
PHILLIPS       CLOUDY    66  50  55 S5        29.69F
ANTIGO         PTSUNNY   67  52  57 E8G17     29.69S
TOMAHAWK       MOSUNNY   67  47  49 E3        29.70S
MERRILL        PTSUNNY   69  50  49 S5        29.69S
$$

WIZ013-073-251900-
NORTHEAST WISCONSIN

CITY           SKY/WX    TMP DP  RH WIND       PRES   REMARKS
IRON MOUNTAIN  CLOUDY    68  46  45 NE10      29.68F
MARINETTE      SUNNY     62  51  67 E12       29.69F
OCONTO         SUNNY     66  53  62 NE8       29.67F
$$

WIZ017-030-035>037-045-251900-
CENTRAL WISCONSIN

CITY           SKY/WX    TMP DP  RH WIND       PRES   REMARKS
MEDFORD        PTSUNNY   67  49  52 E8        29.69S
WAUSAU         MOSUNNY   67  51  56 E7        29.67S
MOSINEE        MOSUNNY   66  52  59 E5        29.69F
MARSHFIELD     PTSUNNY   67  52  58 SE8       29.67F
WISC RAPIDS    MOSUNNY   70  52  52 VRB7      29.68F
STEVENS POINT  PTSUNNY   67  48  51 NE6       29.69S
WAUPACA        CLOUDY    72  51  48 NE6G16    29.68S
SHAWANO        SUNNY     70  53  55 E13       29.68F
CLINTONVILLE   MOSUNNY   68  50  52 E13       29.67S
WAUTOMA        MOSUNNY   69  51  52 NE8       29.68S
$$

WIZ038-039-048-051-251900-
FOX VALLEY

CITY           SKY/WX    TMP DP  RH WIND       PRES   REMARKS
NWS GREEN BAY  SUNNY     64  55  72 NE14      29.68F
APPLETON       PTSUNNY   66  48  52 NE15G21   29.66S
OSHKOSH          N/A     65  54  67 NE10      29.67S
FOND DU LAC    SUNNY     65  53  65 NE12      29.67F
$$

WIZ022-050-052-251900-
EAST CENTRAL WISCONSIN

CITY           SKY/WX    TMP DP  RH WIND       PRES   REMARKS
EPHRAIM        FAIR      61  53  74 N10       29.67F
WASHINGTON ISL CLOUDY    61  52  70 NE8       29.67F
STURGEON BAY   MOSUNNY   61  51  70 N16       29.68S
MANITOWOC      SUNNY     64  53  67 N13G18    29.66F
SHEBOYGAN      SUNNY     66  55  67 NE17G23   29.65S
$$

LMZ563-521-522-541>543-251900-
LAKESHORE

STATION/POSITION TIME  TEMP    WIND        PRES    VSBY  WAVE
                       AIR SEA DIR/SP/G                  HT/PER
                 (UTC) (F)     (DEG/KT/KT) (MB)    (MI)  (FT/S)
SHEBOYGAN LKSHOR 1800   50      20/ 19/ 21 1004.1S
KEWAUNEE LKSHORE 1748   55      20/  9/ 14 1004.5F
NORTHPORT PIER   1740   57     320/  5/  8 1005.4S
N MID LAKE BUOY  1750   45 40  360/  8/ 10 1005.8F         1/ 3
CHAMBERS ISLAND  1730   56      20/ 12/ 13 1005.1F
MENOMINEE LKSHOR 1748           40/ 10/ 11 1004.6F
$$



USA.gov is the U.S. government's official web portal to all federal, state and local government web resources and services.